Regional Weather Roundup
Issued by NWS

Home | Current Version | Previous Version | Text Only | Print | Product List | Glossary On
Versions: 1 2 3 4 5 6 7 8 9 10 11 12 13 14 15 16 17 18 19 20 21 22 23 24 25 26 27 28 29 30 31 32 33 34 35 36 37 38 39 40 41 42 43 44 45 46 47 48 49 50
000
ASUS44 KMEG 011910
RWRTN
TENNESSEE HOURLY STATE WEATHER ROUNDUP
NATIONAL WEATHER SERVICE MEMPHIS TN
200 PM CDT WED JUL 01 2015

TNZ002-004-019-021-049-052-054-088>092-012000-
WEST TENNESSEE

CITY           SKY/WX    TMP DP  RH WIND       PRES   REMARKS
MEMPHIS INTL   CLOUDY    84  72  65 CALM      30.00F
NWS MEMPHIS      N/A     85 N/A N/A MISG        N/A
JACKSON        PTSUNNY   83  68  60 N5        29.99F
DYERSBURG        N/A    N/A N/A N/A MISG        N/A
PARIS          MOSUNNY   75  68  78 SW7       29.97F
LEXINGTON      MOSUNNY   73  70  88 SE3       29.99F
$$

TNZ008-025-027-028-033-062-065-066-012000-
NORTH MIDDLE TENNESSEE

CITY           SKY/WX    TMP DP  RH WIND       PRES   REMARKS
NASHVILLE      TSTM      70  70 100 S5        30.01F FOG
CLARKSVILLE    CLOUDY    76  67  73 W5        29.95F
SMYRNA         TSTM      70  68  94 SE3       30.02F FOG
COOKEVILLE     SUNNY     81  73  78 W6        30.02R
CROSSVILLE     CLOUDY    77  65  66 NW8       30.05F
$$

TNZ061-075-076-078-094-096-097-012000-
SOUTH MIDDLE TENNESSEE

CITY           SKY/WX    TMP DP  RH WIND       PRES   REMARKS
FAYETTEVILLE   PTSUNNY   73  72  94 CALM      30.03R
TULLAHOMA      CLOUDY    68  64  88 NW24G36   30.08R VSB 3/4
WINCHESTER     CLOUDY    72  70  94 SE6       30.04S
MCMINNVILLE    SUNNY     77  75  94 W7        30.04R
COLUMBIA       MOSUNNY   68  68 100 SE3       30.01F
SHELBYVILLE      N/A     70  68  94 N6        30.05R
$$

TNZ017-018-042-046-047-012000-
NORTHEAST TENNESSEE

CITY           SKY/WX    TMP DP  RH WIND       PRES   REMARKS
TRI CITIES     CLOUDY    79  66  64 W10       30.00F
ELIZABETHTON   DRIZZLE   75  66  73 W5        30.01S
$$

TNZ012-013-036-069-073-074-012000-
CENTRAL EAST TENNESSEE

CITY           SKY/WX    TMP DP  RH WIND       PRES   REMARKS
KNOXVILLE      CLOUDY    78  68  71 SW9       29.99F
OAK RIDGE      CLOUDY    78  72  81 VRB5      30.01F
GATLINBURG     CLEAR     79  66  65 SW8       29.99F
MORRISTOWN       N/A     75  70  83 SW10      30.01F
$$

TNZ083-085-099-012000-
SOUTHEAST TENNESSEE

CITY           SKY/WX    TMP DP  RH WIND       PRES   REMARKS
CHATTANOOGA    CLOUDY    79  70  74 SW12      30.02F
$$

SKY/WX REPORTED AS FAIR MEANS FEW OR NO CLOUDS BELOW
12 THOUSAND FEET.



USA.gov is the U.S. government's official web portal to all federal, state and local government web resources and services.